• In Czech Republic
  • List of Countries
  • For 7 days
  • Water Temperature
  • Satellite Maps
  • Weather Map
  • Weather Widgets
  • user-avatar
    Login

    Hourly Weather Phnom Penh

    Today, 23 February, Friday

    Time Temperature Precipitation Wind Pressure Humidity
    00:00 +29°C° 0.1 mm 3 mps 756 mmHg 68%
    01:00 +28°C° 0 mm 3 mps 757 mmHg 67%
    02:00 +28°C° 0.2 mm 2 mps 756 mmHg 69%
    03:00 +28°C° 0.2 mm 2 mps 756 mmHg 70%
    04:00 +27°C° 0.2 mm 2 mps 756 mmHg 72%
    05:00 +27°C° 0 mm 1 mps 756 mmHg 73%
    06:00 +27°C° 0 mm 1 mps 757 mmHg 73%
    07:00 +27°C° 0 mm 1 mps 757 mmHg 74%
    08:00 +29°C° 0 mm 1 mps 757 mmHg 68%
    09:00 +30°C° 0 mm 2 mps 757 mmHg 61%
    10:00 +32°C° 0 mm 2 mps 758 mmHg 55%
    11:00 +34°C° 0 mm 2 mps 757 mmHg 51%
    12:00 +35°C° 0 mm 2 mps 756 mmHg 47%
    13:00 +36°C° 0 mm 2 mps 756 mmHg 43%
    14:00 +36°C° 0 mm 2 mps 755 mmHg 43%
    15:00 +36°C° 0 mm 1 mps 755 mmHg 42%
    16:00 +36°C° 0 mm 1 mps 754 mmHg 41%
    17:00 +35°C° 0 mm 1 mps 754 mmHg 44%
    18:00 +35°C° 0 mm 2 mps 755 mmHg 46%
    19:00 +34°C° 0 mm 2 mps 755 mmHg 49%
    20:00 +33°C° 0 mm 3 mps 755 mmHg 52%
    21:00 +31°C° 0 mm 3 mps 756 mmHg 54%
    22:00 +32°C° 0 mm 4 mps 756 mmHg 56%
    23:00 +30°C° 0 mm 4 mps 757 mmHg 59%

    Tomorrow, 24 February, Saturday

    Time Temperature Precipitation Wind Pressure Humidity
    00:00 +29°C° 0 mm 3 mps 757 mmHg 61%
    01:00 +28°C° 0 mm 3 mps 757 mmHg 63%
    02:00 +28°C° 0 mm 2 mps 757 mmHg 64%
    03:00 +28°C° 0 mm 2 mps 757 mmHg 65%
    04:00 +28°C° 0 mm 2 mps 757 mmHg 66%
    05:00 +28°C° 0 mm 1 mps 757 mmHg 67%
    06:00 +28°C° 0 mm 1 mps 758 mmHg 68%
    07:00 +27°C° 0 mm 1 mps 758 mmHg 70%
    08:00 +29°C° 0 mm 1 mps 758 mmHg 64%
    09:00 +31°C° 0 mm 2 mps 759 mmHg 57%
    10:00 +32°C° 0 mm 2 mps 759 mmHg 51%
    11:00 +34°C° 0 mm 2 mps 758 mmHg 47%
    12:00 +36°C° 0 mm 2 mps 758 mmHg 44%
    13:00 +37°C° 0 mm 2 mps 757 mmHg 40%
    14:00 +38°C° 0 mm 2 mps 756 mmHg 38%
    15:00 +37°C° 0 mm 1 mps 755 mmHg 35%
    16:00 +39°C° 0 mm 1 mps 754 mmHg 33%
    17:00 +37°C° 0 mm 1 mps 755 mmHg 35%
    18:00 +36°C° 0 mm 1 mps 755 mmHg 37%
    19:00 +35°C° 0 mm 1 mps 755 mmHg 38%
    20:00 +35°C° 0 mm 2 mps 756 mmHg 41%
    21:00 +34°C° 0 mm 3 mps 757 mmHg 44%
    22:00 +33°C° 0 mm 4 mps 758 mmHg 47%
    23:00 +32°C° 0 mm 4 mps 757 mmHg 51%

    Day after tomorrow, 25 February, Sunday

    Time Temperature Precipitation Wind Pressure Humidity
    00:00 +30°C° 0 mm 4 mps 757 mmHg 55%
    01:00 +29°C° 0 mm 4 mps 757 mmHg 59%
    02:00 +29°C° 0 mm 4 mps 757 mmHg 61%
    03:00 +28°C° 0 mm 4 mps 757 mmHg 63%
    04:00 +28°C° 0 mm 4 mps 757 mmHg 66%
    05:00 +28°C° 0 mm 3 mps 757 mmHg 68%
    06:00 +28°C° 0 mm 3 mps 757 mmHg 71%
    07:00 +27°C° 0 mm 2 mps 758 mmHg 74%
    08:00 +29°C° 0 mm 2 mps 758 mmHg 65%
    09:00 +31°C° 0 mm 2 mps 758 mmHg 57%
    10:00 +32°C° 0 mm 2 mps 759 mmHg 49%
    11:00 +35°C° 0 mm 2 mps 758 mmHg 44%
    12:00 +36°C° 0 mm 2 mps 757 mmHg 39%
    13:00 +36°C° 0 mm 1 mps 756 mmHg 34%
    14:00 +37°C° 0 mm 1 mps 755 mmHg 33%
    15:00 +37°C° 0 mm 1 mps 754 mmHg 31%
    16:00 +39°C° 0 mm 1 mps 753 mmHg 29%
    17:00 +36°C° 0 mm 1 mps 754 mmHg 31%
    18:00 +35°C° 0 mm 1 mps 754 mmHg 34%
    19:00 +35°C° 0 mm 2 mps 755 mmHg 36%
    20:00 +34°C° 0 mm 2 mps 755 mmHg 39%
    21:00 +34°C° 0 mm 2 mps 756 mmHg 41%
    22:00 +32°C° 0 mm 2 mps 756 mmHg 44%
    23:00 +31°C° 0 mm 3 mps 756 mmHg 50%

    26 February, Monday

    Time Temperature Precipitation Wind Pressure Humidity
    00:00 +30°C° 0 mm 3 mps 756 mmHg 56%
    01:00 +29°C° 0 mm 4 mps 756 mmHg 62%
    02:00 +29°C° 0 mm 4 mps 756 mmHg 66%
    03:00 +28°C° 0 mm 4 mps 756 mmHg 70%
    04:00 +28°C° 0 mm 4 mps 756 mmHg 75%
    05:00 +28°C° 0 mm 4 mps 756 mmHg 75%
    06:00 +28°C° 0 mm 3 mps 757 mmHg 76%
    07:00 +28°C° 0 mm 3 mps 757 mmHg 76%
    08:00 +29°C° 0 mm 3 mps 758 mmHg 67%
    09:00 +31°C° 0 mm 3 mps 758 mmHg 58%
    10:00 +34°C° 0 mm 3 mps 758 mmHg 48%
    11:00 +35°C° 0 mm 2 mps 757 mmHg 44%
    12:00 +36°C° 0 mm 2 mps 756 mmHg 39%
    13:00 +36°C° 0 mm 1 mps 755 mmHg 34%
    14:00 +37°C° 0 mm 1 mps 754 mmHg 32%
    15:00 +37°C° 0 mm 1 mps 753 mmHg 30%
    16:00 +39°C° 0 mm 1 mps 753 mmHg 28%
    17:00 +36°C° 0 mm 1 mps 753 mmHg 30%
    18:00 +36°C° 0 mm 2 mps 754 mmHg 32%
    19:00 +35°C° 0 mm 2 mps 754 mmHg 35%
    20:00 +34°C° 0 mm 3 mps 755 mmHg 40%
    21:00 +33°C° 0 mm 3 mps 755 mmHg 45%
    22:00 +31°C° 0 mm 3 mps 756 mmHg 50%
    23:00 +30°C° 0 mm 3 mps 756 mmHg 56%

    27 February, Tuesday

    Time Temperature Precipitation Wind Pressure Humidity
    00:00 +30°C° 0 mm 4 mps 756 mmHg 63%
    01:00 +29°C° 0 mm 4 mps 756 mmHg 70%
    02:00 +28°C° 0 mm 4 mps 756 mmHg 72%
    03:00 +28°C° 0 mm 3 mps 756 mmHg 75%
    04:00 +28°C° 0 mm 3 mps 755 mmHg 77%
    05:00 +28°C° 0 mm 3 mps 756 mmHg 78%
    06:00 +27°C° 0 mm 3 mps 757 mmHg 78%
    07:00 +27°C° 0 mm 3 mps 757 mmHg 78%
    08:00 +29°C° 0 mm 3 mps 757 mmHg 70%
    09:00 +31°C° 0 mm 3 mps 757 mmHg 62%
    10:00 +34°C° 0 mm 3 mps 758 mmHg 54%
    11:00 +35°C° 0 mm 3 mps 757 mmHg 48%
    12:00 +36°C° 0 mm 2 mps 755 mmHg 43%
    13:00 +38°C° 0 mm 2 mps 754 mmHg 38%
    14:00 +38°C° 0 mm 2 mps 754 mmHg 36%
    15:00 +37°C° 0 mm 1 mps 753 mmHg 34%
    16:00 +39°C° 0 mm 1 mps 752 mmHg 32%
    17:00 +37°C° 0 mm 1 mps 753 mmHg 36%
    18:00 +36°C° 0 mm 2 mps 753 mmHg 39%
    19:00 +35°C° 0 mm 2 mps 754 mmHg 42%
    20:00 +34°C° 0 mm 3 mps 754 mmHg 48%
    21:00 +33°C° 0 mm 3 mps 755 mmHg 54%
    22:00 +32°C° 0 mm 4 mps 755 mmHg 59%
    23:00 +30°C° 0 mm 4 mps 755 mmHg 63%

    28 February, Wednesday

    Time Temperature Precipitation Wind Pressure Humidity
    00:00 +30°C° 0 mm 4 mps 755 mmHg 67%
    01:00 +29°C° 0 mm 3 mps 755 mmHg 70%
    02:00 +29°C° 0 mm 3 mps 755 mmHg 72%
    03:00 +28°C° 0 mm 3 mps 755 mmHg 74%
    04:00 +28°C° 0 mm 3 mps 755 mmHg 76%
    05:00 +28°C° 0 mm 3 mps 755 mmHg 77%
    06:00 +28°C° 0 mm 3 mps 756 mmHg 78%
    07:00 +28°C° 0 mm 3 mps 756 mmHg 79%
    08:00 +30°C° 0 mm 3 mps 756 mmHg 71%
    09:00 +31°C° 0 mm 3 mps 756 mmHg 63%
    10:00 +34°C° 0 mm 3 mps 756 mmHg 55%
    11:00 +36°C° 0 mm 2 mps 756 mmHg 50%
    12:00 +37°C° 0 mm 2 mps 755 mmHg 45%
    13:00 +37°C° 0 mm 1 mps 754 mmHg 39%
    14:00 +37°C° 0 mm 1 mps 753 mmHg 39%
    15:00 +37°C° 0 mm 1 mps 753 mmHg 39%
    16:00 +37°C° 0 mm 1 mps 752 mmHg 39%
    17:00 +37°C° 0 mm 2 mps 753 mmHg 42%
    18:00 +36°C° 0 mm 2 mps 753 mmHg 46%
    19:00 +35°C° 0 mm 3 mps 754 mmHg 50%
    20:00 +34°C° 0 mm 3 mps 754 mmHg 54%
    21:00 +33°C° 0 mm 4 mps 755 mmHg 59%
    22:00 +32°C° 0 mm 4 mps 755 mmHg 64%
    23:00 +30°C° 0 mm 4 mps 755 mmHg 66%
    Show more